Terminal Aerodrome Forecast
Issued by NWS Chicago, IL

Home | Current Version | Previous Version | Graphics & Text | Print | Product List | Glossary On
Versions: 1 2 3 4 5 6 7 8 9 10 11 12 13 14 15 16 17 18 19 20 21 22 23 24 25 26 27 28 29 30 31 32 33
000
FTUS43 KLOT 070500
TAFRFD
TAF
KRFD 070524Z 0706/0806 25008KT P6SM SCT025 BKN100
     FM070700 25008KT P6SM SCT040
     FM071200 30010KT P6SM SCT040 BKN250
     FM080100 25006KT P6SM SCT050 BKN100 PROB30 0803/0806 TSRA
      BKN100CB=

USA.gov is the U.S. government's official web portal to all federal, state and local government web resources and services.